TimeEDT,TemperatureF,Dew PointF,Humidity,Sea Level PressureIn,VisibilityMPH,Wind Direction,Wind SpeedMPH,Gust SpeedMPH,PrecipitationIn,Events,Conditions,WindDirDegrees,DateUTC
12:51 AM,69.1,64.9,87,30.02,10.0,NNE,3.5,-,N/A,,Overcast,20,2013-08-23 04:51:00
1:51 AM,66.9,64.0,90,30.02,7.0,Calm,Calm,-,N/A,,Overcast,0,2013-08-23 05:51:00
2:51 AM,68.0,64.0,87,30.01,8.0,NNW,3.5,-,N/A,,Overcast,330,2013-08-23 06:51:00
3:51 AM,66.9,64.9,93,30.01,7.0,NW,3.5,-,0.00,Rain,Light Rain,310,2013-08-23 07:51:00
4:51 AM,66.9,64.9,93,30.02,6.0,NNW,3.5,-,0.00,Rain,Light Rain,340,2013-08-23 08:51:00
5:51 AM,66.9,64.9,93,30.01,7.0,East,5.8,-,0.00,,Overcast,80,2013-08-23 09:51:00
6:51 AM,66.0,64.9,96,30.04,5.0,NW,4.6,-,N/A,,Overcast,320,2013-08-23 10:51:00
7:51 AM,66.9,64.9,93,30.06,5.0,NE,5.8,-,0.00,,Overcast,40,2013-08-23 11:51:00
8:51 AM,68.0,64.0,87,30.07,10.0,NNE,10.4,-,N/A,,Mostly Cloudy,30,2013-08-23 12:51:00
9:51 AM,71.1,62.1,73,30.09,10.0,NNE,5.8,-,N/A,,Mostly Cloudy,30,2013-08-23 13:51:00
10:51 AM,75.9,59.0,56,30.09,10.0,NNE,6.9,-,N/A,,Scattered Clouds,30,2013-08-23 14:51:00
11:51 AM,78.1,53.1,42,30.09,10.0,NE,5.8,-,N/A,,Scattered Clouds,50,2013-08-23 15:51:00
12:51 PM,79.0,55.0,44,30.09,10.0,Variable,5.8,-,N/A,,Scattered Clouds,0,2013-08-23 16:51:00
1:51 PM,81.0,55.0,41,30.09,10.0,NNE,8.1,-,N/A,,Mostly Cloudy,30,2013-08-23 17:51:00
2:51 PM,80.1,54.0,40,30.10,10.0,North,6.9,-,N/A,,Scattered Clouds,350,2013-08-23 18:51:00
3:51 PM,81.0,52.0,36,30.09,10.0,North,11.5,-,N/A,,Partly Cloudy,360,2013-08-23 19:51:00
4:51 PM,79.0,50.0,36,30.09,10.0,NNE,11.5,-,N/A,,Partly Cloudy,20,2013-08-23 20:51:00
5:51 PM,79.0,48.9,35,30.09,10.0,North,10.4,-,N/A,,Scattered Clouds,350,2013-08-23 21:51:00
6:51 PM,75.0,52.0,44,30.10,10.0,North,12.7,-,N/A,,Partly Cloudy,10,2013-08-23 22:51:00
7:51 PM,70.0,51.1,51,30.12,10.0,North,8.1,-,N/A,,Partly Cloudy,10,2013-08-23 23:51:00
8:51 PM,66.0,52.0,60,30.14,10.0,NNE,6.9,-,N/A,,Partly Cloudy,20,2013-08-24 00:51:00
9:51 PM,63.0,53.1,70,30.16,10.0,NE,6.9,-,N/A,,Clear,40,2013-08-24 01:51:00
10:51 PM,57.9,52.0,81,30.18,10.0,NE,5.8,-,N/A,,Clear,50,2013-08-24 02:51:00
11:51 PM,60.1,53.1,78,30.19,10.0,NE,8.1,-,N/A,,Clear,50,2013-08-24 03:51:00